Fes, Morocco

5:21 AM WET on January 23, 2017 (GMT +0000)
Fes

Weather History for 60141 - January, 2014

Change the Weather History Date:

Monday, January 13, 2014

  Actual Average Record
Temperature  
Mean Temperature 52 °F -  
Max Temperature 62 °F 59 °F - ()
Min Temperature 42 °F 37 °F - ()
Degree Days  
Heating Degree Days 13    
Growing Degree Days 2 (Base 50)    
Moisture  
Dew Point 42 °F    
Average Humidity 71    
Maximum Humidity 88    
Minimum Humidity 54    
Precipitation  
Precipitation 0.08 in 0.11 in - ()
Sea Level Pressure  
Sea Level Pressure 30.30 in    
Wind  
Wind Speed 8 mph ()    
Max Wind Speed 14 mph    
Max Gust Speed -    
Visibility 5.3 miles    
Events Rain    
T = Trace of Precipitation, MM = Missing Value Source: Averaged Metar Reports

Daily Weather History Graph

Daily Weather History Graph

Search for Another Location

Airport or City:

Trip Planner

Search our weather history database for the weather conditions in past years. The results will help you decide how hot, cold, wet, or windy it might be!

Date:

Astronomy

Jan. 13, 2014 Rise Set
Actual Time 7:25 AM WET 5:31 PM WET
Civil Twilight 6:58 AM WET 5:59 PM WET
Nautical Twilight 6:27 AM WET 6:29 PM WET
Astronomical Twilight 5:57 AM WET 7:00 PM WET
Moon 3:34 PM WET (1/13) 5:03 AM WET (1/13)
Length of Visible Light 11h 00m
Length of Day
10h 06m
Waxing Gibbous, 94% of the Moon is Illuminated
Jan 13
Waxing Gibbous
Jan 16
Full
Jan 24
Last Quarter
Jan 30
New
Feb 6
First Quarter

Hourly Weather History & Observations

Time (WET) Temp. Windchill Dew Point Humidity Pressure Visibility Wind Dir Wind Speed Gust Speed Precip Events Conditions
12:00 AM 46.4 °F 41.9 °F 37.4 °F 71% 30.33 in - South 9.2 mph - N/A   Clear
2:00 AM 46.4 °F 41.9 °F 37.4 °F 71% 30.33 in - South 9.2 mph - N/A   Clear
3:00 AM 44 °F - 36 °F 66% 30.34 in 6 mi SE 8.1 mph - -  
3:00 AM 42.8 °F 38.0 °F 35.6 °F 76% 30.30 in - SE 8.1 mph - N/A   Clear
4:00 AM 44.6 °F 39.7 °F 37.4 °F 76% 30.27 in - SE 9.2 mph - N/A   Clear
5:00 AM 44.6 °F 40.2 °F 35.6 °F 71% 30.27 in - SE 8.1 mph - N/A   Clear
6:00 AM 43 °F - 36 °F 68% 30.32 in 6 mi SE 10.4 mph - -  
6:00 AM 42.8 °F 37.0 °F 35.6 °F 76% 30.27 in - SE 10.4 mph - N/A   Clear
7:00 AM 42.8 °F 38.6 °F 35.6 °F 76% 30.30 in - SSE 6.9 mph - N/A   Clear
8:00 AM 44.6 °F 40.2 °F 37.4 °F 76% 30.30 in - SSE 8.1 mph - N/A   Clear
9:00 AM 53 °F - 41 °F 54% 30.34 in 6 mi SW 4.6 mph - -   Mostly Cloudy
9:00 AM 53.6 °F - 41.0 °F 62% 30.30 in - SW 4.6 mph - N/A   Clear
10:00 AM 57.2 °F - 42.8 °F 59% 30.33 in - West 6.9 mph - N/A   Clear
11:00 AM 59.0 °F - 46.4 °F 63% 30.33 in - WNW 6.9 mph - N/A   Clear
12:00 PM 58 °F - 48 °F 60% 30.32 in 6 mi WNW 10.4 mph - -   Scattered Clouds
12:00 PM 57.2 °F - 46.4 °F 67% 30.33 in 6.2 mi WNW 11.5 mph - N/A   Mostly Cloudy
1:00 PM 59.0 °F - 48.2 °F 67% 30.27 in 6.2 mi WNW 8.1 mph - N/A   Mostly Cloudy
2:00 PM 60.8 °F - 46.4 °F 59% 30.24 in 6.2 mi WNW 12.7 mph - N/A   Mostly Cloudy
3:00 PM 59 °F - 49 °F 59% 30.23 in 6 mi WNW 13.8 mph - -   Scattered Clouds
3:00 PM 59.0 °F - 48.2 °F 67% 30.24 in 6.2 mi NW 11.5 mph - N/A   Mostly Cloudy
4:00 PM 59.0 °F - 48.2 °F 67% 30.24 in 6.2 mi WNW 9.2 mph - N/A   Mostly Cloudy
5:00 PM 53.6 °F - 50.0 °F 88% 30.27 in 3.7 mi West 11.5 mph - N/A Rain Rain
6:00 PM 52 °F - 46 °F 73% 30.29 in 4 mi West 8.1 mph - - Rain Light Rain
6:00 PM 51.8 °F - 46.4 °F 82% 30.27 in 3.7 mi West 6.9 mph - N/A Rain Rain
7:00 PM 51.8 °F - 46.4 °F 82% 30.27 in 3.7 mi West 11.5 mph - N/A   Mostly Cloudy
8:00 PM 48.2 °F - 42.8 °F 82% 30.33 in 3.7 mi West 10.4 mph - N/A Rain Light Rain
9:00 PM 46 °F - 41 °F 76% 30.39 in 4 mi SW 11.5 mph - - Rain Light Rain
9:00 PM 46.4 °F 41.1 °F 41.0 °F 81% 30.33 in 4.3 mi SW 11.5 mph - N/A Rain Light Rain
10:00 PM 46.4 °F 41.1 °F 41.0 °F 81% 30.36 in 6.2 mi SSW 11.5 mph - N/A Rain Light Rain
11:00 PM 46.4 °F 42.4 °F 39.2 °F 76% 30.33 in 6.2 mi SW 8.1 mph - N/A   Mostly Cloudy